SKW148R LIPY-LIMC

Flight info

Callsign SKW148R
Flight time 0h 52m
Altitude 18000
Route BIDMA M730 ASDOR/N0494F300 DCT SUKOM DCT VABOK DCT ADOSA/N0489F310 DCT IDREK DCT ELTAR DCT NOBMI DCT NEVNI DCT OSKOR DCT LEGLO DCT PEXUG
Aircraft B763/H-SDE3FGHIM3RWXY/LB1

Departure

Time 2026-05-04 21:42
Airport Marche Airport (LIPY)

Arrival

Time 2026-05-04 22:34
Airport Milan Malpensa International Airport (LIMC)
Time Latitude Longitude Altitude Speed Heading
2026-05-04 20:47 43.60885 13.35647 62 ft 0 kts 98°
2026-05-04 21:17 43.60886 13.35639 62 ft 2 kts 98°
2026-05-04 21:17 43.60888 13.35619 62 ft 2 kts 98°
2026-05-04 21:18 43.60890 13.35598 62 ft 2 kts 98°
2026-05-04 21:18 43.60892 13.35578 62 ft 2 kts 98°
2026-05-04 21:18 43.60894 13.35564 62 ft 0 kts 98°
2026-05-04 21:18 43.60897 13.35530 62 ft 5 kts 91°
2026-05-04 21:19 43.60892 13.35495 62 ft 0 kts 56°
2026-05-04 21:33 43.60923 13.35550 62 ft 11 kts 35°
2026-05-04 21:33 43.60965 13.35561 61 ft 0 kts 359°
2026-05-04 21:34 43.60975 13.35561 61 ft 2 kts 359°
2026-05-04 21:34 43.61004 13.35561 61 ft 5 kts 360°
2026-05-04 21:35 43.61046 13.35561 61 ft 6 kts 360°
2026-05-04 21:35 43.61092 13.35567 61 ft 7 kts 14°
2026-05-04 21:35 43.61139 13.35593 60 ft 7 kts 26°
2026-05-04 21:35 43.61185 13.35632 60 ft 7 kts 37°
2026-05-04 21:36 43.61235 13.35689 59 ft 12 kts 41°
2026-05-04 21:36 43.61304 13.35778 58 ft 14 kts 44°
2026-05-04 21:36 43.61374 13.35876 57 ft 14 kts 45°
2026-05-04 21:36 43.61447 13.35975 56 ft 14 kts 44°
2026-05-04 21:37 43.61523 13.36075 54 ft 15 kts 43°
2026-05-04 21:37 43.61597 13.36183 53 ft 15 kts 45°
2026-05-04 21:37 43.61693 13.36312 51 ft 25 kts 44°
2026-05-04 21:37 43.61834 13.36505 48 ft 29 kts 45°
2026-05-04 21:38 43.61978 13.36708 46 ft 29 kts 45°
2026-05-04 21:38 43.62121 13.36904 44 ft 28 kts 44°
2026-05-04 21:38 43.62244 13.37070 43 ft 17 kts 44°
2026-05-04 21:38 43.62331 13.37188 42 ft 17 kts 44°
2026-05-04 21:39 43.62431 13.37320 41 ft 21 kts 45°
2026-05-04 21:39 43.62521 13.37452 40 ft 10 kts 63°
2026-05-04 21:39 43.62546 13.37527 40 ft 6 kts 12°
2026-05-04 21:39 43.62558 13.37495 40 ft 5 kts 246°
2026-05-04 21:40 43.62534 13.37461 40 ft 5 kts 223°
2026-05-04 21:40 43.62528 13.37452 40 ft 0 kts 223°
2026-05-04 21:41 43.62518 13.37440 40 ft 12 kts 224°
2026-05-04 21:41 43.62343 13.37202 42 ft 57 kts 224°
2026-05-04 21:41 43.61920 13.36625 47 ft 119 kts 224°
2026-05-04 21:41 43.61175 13.35614 108 ft 171 kts 219°
2026-05-04 21:42 43.60271 13.34494 434 ft 184 kts 222°
2026-05-04 21:42 43.59289 13.33237 1160 ft 196 kts 221°
2026-05-04 21:42 43.58295 13.31963 1977 ft 199 kts 224°
2026-05-04 21:42 43.57292 13.30604 2641 ft 211 kts 224°
2026-05-04 21:43 43.56269 13.29073 3214 ft 225 kts 228°
2026-05-04 21:43 43.55232 13.27436 4141 ft 230 kts 227°
2026-05-04 21:43 43.54184 13.25839 5382 ft 228 kts 226°
2026-05-04 21:43 43.53144 13.24267 6511 ft 227 kts 226°
2026-05-04 21:44 43.52085 13.22671 7515 ft 225 kts 227°
2026-05-04 21:44 43.51352 13.20783 8113 ft 234 kts 258°
2026-05-04 21:44 43.51492 13.18536 8718 ft 244 kts 291°
2026-05-04 21:44 43.52520 13.16692 9371 ft 252 kts 323°
2026-05-04 21:45 43.54140 13.15698 9968 ft 259 kts 341°
2026-05-04 21:45 43.55861 13.14972 10687 ft 258 kts 340°
2026-05-04 21:45 43.57554 13.14234 11364 ft 259 kts 340°
2026-05-04 21:45 43.59275 13.13496 12009 ft 260 kts 340°
2026-05-04 21:46 43.60985 13.12740 12601 ft 262 kts 334°
2026-05-04 21:46 43.62545 13.11330 12875 ft 274 kts 316°
2026-05-04 21:46 43.64038 13.09580 13206 ft 289 kts 319°
2026-05-04 21:46 43.65533 13.07725 13730 ft 293 kts 305°
2026-05-04 21:47 43.66462 13.05236 14371 ft 292 kts 285°
2026-05-04 21:47 43.66988 13.02549 14991 ft 294 kts 284°
2026-05-04 21:47 43.67525 12.99827 15600 ft 297 kts 283°
2026-05-04 21:47 43.68057 12.97043 16176 ft 302 kts 283°
2026-05-04 21:48 43.68601 12.94147 16430 ft 319 kts 283°
2026-05-04 21:48 43.69172 12.91077 16666 ft 337 kts 283°
2026-05-04 21:48 43.69767 12.87863 16892 ft 355 kts 283°
2026-05-04 21:48 43.70394 12.84460 17154 ft 372 kts 283°
2026-05-04 21:49 43.71031 12.80999 17837 ft 375 kts 283°
2026-05-04 21:49 43.71675 12.77485 18497 ft 380 kts 283°
2026-05-04 21:49 43.72320 12.73965 19200 ft 383 kts 283°
2026-05-04 21:49 43.72975 12.70381 19890 ft 386 kts 283°
2026-05-04 21:50 43.73629 12.66796 20603 ft 388 kts 283°
2026-05-04 21:50 43.74290 12.63161 21238 ft 392 kts 283°
2026-05-04 21:50 43.74956 12.59491 21814 ft 396 kts 283°
2026-05-04 21:50 43.75636 12.55736 22431 ft 399 kts 282°
2026-05-04 21:51 43.76310 12.52011 22994 ft 403 kts 282°
2026-05-04 21:51 43.76985 12.48267 23554 ft 406 kts 283°
2026-05-04 21:51 43.77880 12.44546 24079 ft 410 kts 292°
2026-05-04 21:51 43.79279 12.41096 24693 ft 413 kts 303°
2026-05-04 21:52 43.81129 12.38020 25210 ft 419 kts 313°
2026-05-04 21:52 43.83380 12.35420 25698 ft 424 kts 322°
2026-05-04 21:52 43.85844 12.33114 26238 ft 425 kts 322°
2026-05-04 21:52 43.88273 12.30813 26662 ft 428 kts 322°
2026-05-04 21:53 43.90742 12.28489 27192 ft 428 kts 322°
2026-05-04 21:53 43.93193 12.26179 27635 ft 430 kts 322°
2026-05-04 21:53 43.95712 12.23804 28040 ft 433 kts 322°
2026-05-04 21:53 43.98184 12.21472 28504 ft 434 kts 322°
2026-05-04 21:54 44.00692 12.19103 28915 ft 435 kts 321°
2026-05-04 21:54 44.03198 12.16737 29359 ft 436 kts 321°
2026-05-04 21:54 44.05723 12.14348 29692 ft 439 kts 321°
2026-05-04 21:54 44.08239 12.11965 30067 ft 440 kts 321°
2026-05-04 21:55 44.10782 12.09555 30401 ft 443 kts 321°
2026-05-04 21:55 44.13309 12.07157 30804 ft 443 kts 321°
2026-05-04 21:55 44.15860 12.04736 31089 ft 442 kts 321°
2026-05-04 21:56 44.20697 12.00134 31077 ft 443 kts 321°
2026-05-04 21:56 44.25841 11.95231 31068 ft 444 kts 321°
2026-05-04 21:57 44.30932 11.90367 31072 ft 445 kts 321°
2026-05-04 21:57 44.36055 11.85462 31070 ft 445 kts 321°
2026-05-04 21:58 44.41190 11.80534 31058 ft 448 kts 321°
2026-05-04 21:58 44.46360 11.75563 31053 ft 448 kts 321°
2026-05-04 21:59 44.51495 11.70616 31054 ft 448 kts 321°
2026-05-04 21:59 44.56903 11.66185 31065 ft 457 kts 334°
2026-05-04 22:00 44.62877 11.63025 31050 ft 459 kts 335°
2026-05-04 22:00 44.68874 11.59872 31045 ft 459 kts 336°
2026-05-04 22:01 44.74886 11.56714 31041 ft 459 kts 336°
2026-05-04 22:01 44.80875 11.53564 31036 ft 460 kts 336°
2026-05-04 22:02 44.86868 11.50406 31036 ft 459 kts 336°
2026-05-04 22:02 44.92864 11.47240 31029 ft 460 kts 336°
2026-05-04 22:03 44.98838 11.44079 31030 ft 460 kts 336°
2026-05-04 22:03 45.04855 11.40888 31028 ft 460 kts 336°
2026-05-04 22:04 45.10852 11.37699 31028 ft 463 kts 336°
2026-05-04 22:04 45.16916 11.34470 31032 ft 462 kts 335°
2026-05-04 22:05 45.22951 11.31247 31041 ft 463 kts 336°
2026-05-04 22:05 45.28993 11.27986 31044 ft 462 kts 333°
2026-05-04 22:06 45.34733 11.23980 31050 ft 461 kts 330°
2026-05-04 22:06 45.40487 11.19873 31053 ft 462 kts 330°
2026-05-04 22:07 45.46254 11.15744 31058 ft 462 kts 330°
2026-05-04 22:07 45.51924 11.11677 31044 ft 447 kts 330°
2026-05-04 22:07 45.54688 11.09687 30937 ft 436 kts 329°
2026-05-04 22:08 45.57247 11.07453 30361 ft 432 kts 320°
2026-05-04 22:08 45.59472 11.04664 29634 ft 430 kts 310°
2026-05-04 22:08 45.61335 11.01300 29029 ft 426 kts 300°
2026-05-04 22:08 45.62692 10.97645 28529 ft 420 kts 290°
2026-05-04 22:09 45.63568 10.93697 27995 ft 415 kts 280°
2026-05-04 22:09 45.63994 10.89643 27470 ft 411 kts 275°
2026-05-04 22:09 45.64246 10.85593 26848 ft 411 kts 272°
2026-05-04 22:09 45.64407 10.81523 26212 ft 410 kts 271°
2026-05-04 22:10 45.64523 10.77472 25794 ft 405 kts 270°
2026-05-04 22:10 45.64603 10.73537 25348 ft 401 kts 270°
2026-05-04 22:10 45.64662 10.69566 24918 ft 396 kts 270°
2026-05-04 22:10 45.64707 10.65687 24531 ft 389 kts 269°
2026-05-04 22:11 45.64741 10.61830 24165 ft 388 kts 269°
2026-05-04 22:11 45.64766 10.57952 23727 ft 392 kts 269°
2026-05-04 22:11 45.64787 10.54105 23344 ft 391 kts 269°
2026-05-04 22:11 45.64805 10.50208 22949 ft 389 kts 269°
2026-05-04 22:12 45.64819 10.46371 22527 ft 386 kts 269°
2026-05-04 22:12 45.64832 10.42569 22160 ft 382 kts 269°
2026-05-04 22:12 45.64847 10.38774 21751 ft 381 kts 269°
2026-05-04 22:12 45.64861 10.34976 21346 ft 380 kts 268°
2026-05-04 22:13 45.64873 10.31216 20954 ft 377 kts 268°
2026-05-04 22:13 45.64884 10.27488 20578 ft 375 kts 268°
2026-05-04 22:13 45.64894 10.23731 20171 ft 373 kts 268°
2026-05-04 22:13 45.64902 10.20043 19806 ft 371 kts 268°
2026-05-04 22:14 45.64911 10.16376 19441 ft 370 kts 268°
2026-05-04 22:14 45.64917 10.12727 19052 ft 367 kts 268°
2026-05-04 22:14 45.64929 10.09091 18722 ft 364 kts 268°
2026-05-04 22:14 45.64946 10.05457 18324 ft 364 kts 268°
2026-05-04 22:15 45.64961 10.01797 17935 ft 363 kts 268°
2026-05-04 22:15 45.64974 9.98242 17571 ft 360 kts 268°
2026-05-04 22:15 45.64986 9.94647 17202 ft 358 kts 268°
2026-05-04 22:15 45.64997 9.91088 16813 ft 356 kts 268°
2026-05-04 22:16 45.65006 9.87542 16452 ft 355 kts 268°
2026-05-04 22:16 45.65015 9.84008 16080 ft 354 kts 268°
2026-05-04 22:16 45.65023 9.80535 15695 ft 353 kts 268°
2026-05-04 22:16 45.65031 9.77023 15340 ft 349 kts 269°
2026-05-04 22:17 45.65042 9.76035 15240 ft 349 kts 270°
2026-05-04 22:17 45.65127 9.72556 14876 ft 348 kts 270°
2026-05-04 22:17 45.65201 9.69082 14505 ft 348 kts 270°
2026-05-04 22:17 45.65277 9.65625 14152 ft 346 kts 270°
2026-05-04 22:18 45.65342 9.62203 13804 ft 344 kts 269°
2026-05-04 22:18 45.65339 9.58812 13502 ft 341 kts 268°
2026-05-04 22:18 45.65344 9.55377 13209 ft 341 kts 268°
2026-05-04 22:18 45.65343 9.51983 12903 ft 342 kts 268°
2026-05-04 22:19 45.65344 9.48540 12546 ft 343 kts 268°
2026-05-04 22:19 45.65343 9.45150 12224 ft 338 kts 268°
2026-05-04 22:19 45.65342 9.41859 12196 ft 322 kts 268°
2026-05-04 22:19 45.65341 9.38730 12190 ft 307 kts 268°
2026-05-04 22:20 45.65338 9.35747 12187 ft 296 kts 268°
2026-05-04 22:20 45.65346 9.32822 12108 ft 298 kts 268°
2026-05-04 22:20 45.65363 9.29809 11789 ft 305 kts 268°
2026-05-04 22:20 45.65379 9.26769 11424 ft 305 kts 268°
2026-05-04 22:21 45.65393 9.23763 11076 ft 303 kts 268°
2026-05-04 22:21 45.65408 9.20723 10791 ft 300 kts 268°
2026-05-04 22:21 45.65420 9.17789 10521 ft 296 kts 268°
2026-05-04 22:21 45.65434 9.14823 10331 ft 291 kts 268°
2026-05-04 22:22 45.65445 9.12011 10197 ft 284 kts 267°
2026-05-04 22:22 45.65454 9.09123 9686 ft 294 kts 267°
2026-05-04 22:22 45.65464 9.06195 9491 ft 287 kts 267°
2026-05-04 22:22 45.65473 9.03374 9256 ft 285 kts 268°
2026-05-04 22:23 45.65480 9.00557 8967 ft 284 kts 267°
2026-05-04 22:23 45.65178 8.97830 8648 ft 277 kts 244°
2026-05-04 22:23 45.64359 8.95355 8477 ft 273 kts 242°
2026-05-04 22:23 45.63531 8.92899 8276 ft 275 kts 242°
2026-05-04 22:24 45.62569 8.90573 8003 ft 271 kts 224°
2026-05-04 22:24 45.61050 8.89093 7767 ft 260 kts 195°
2026-05-04 22:24 45.59295 8.88842 7544 ft 252 kts 173°
2026-05-04 22:24 45.57567 8.89134 7231 ft 253 kts 171°
2026-05-04 22:25 45.55807 8.89484 6954 ft 251 kts 170°
2026-05-04 22:25 45.54099 8.89876 6650 ft 252 kts 169°
2026-05-04 22:25 45.52377 8.90302 6417 ft 249 kts 168°
2026-05-04 22:25 45.50642 8.90748 6076 ft 251 kts 168°
2026-05-04 22:26 45.48944 8.91195 5903 ft 247 kts 168°
2026-05-04 22:26 45.47265 8.91644 5695 ft 246 kts 168°
2026-05-04 22:26 45.45586 8.92096 5461 ft 246 kts 168°
2026-05-04 22:26 45.43912 8.92548 5237 ft 245 kts 168°
2026-05-04 22:27 45.42229 8.93002 5011 ft 243 kts 169°
2026-05-04 22:27 45.40567 8.92913 4793 ft 241 kts 199°
2026-05-04 22:27 45.39165 8.91623 4463 ft 243 kts 231°
2026-05-04 22:27 45.38444 8.89490 4346 ft 236 kts 256°
2026-05-04 22:28 45.38074 8.87284 4319 ft 224 kts 256°
2026-05-04 22:28 45.37726 8.85156 4256 ft 215 kts 257°
2026-05-04 22:28 45.37438 8.83145 4276 ft 202 kts 265°
2026-05-04 22:28 45.37724 8.81247 4303 ft 202 kts 303°
2026-05-04 22:29 45.38809 8.79921 4151 ft 211 kts 339°
2026-05-04 22:29 45.40248 8.79451 3763 ft 214 kts 353°
2026-05-04 22:29 45.41672 8.79144 3598 ft 196 kts 353°
2026-05-04 22:29 45.42989 8.78882 3630 ft 186 kts 354°
2026-05-04 22:30 45.44288 8.78558 3629 ft 194 kts 349°
2026-05-04 22:30 45.45627 8.78164 3427 ft 198 kts 350°
2026-05-04 22:30 45.46979 8.77785 3048 ft 194 kts 349°
2026-05-04 22:30 45.48215 8.77439 2944 ft 168 kts 349°
2026-05-04 22:31 45.49358 8.77123 3010 ft 170 kts 349°
2026-05-04 22:31 45.50559 8.76792 3021 ft 179 kts 349°
2026-05-04 22:31 45.51777 8.76455 2991 ft 175 kts 349°
2026-05-04 22:31 45.52969 8.76123 2915 ft 178 kts 349°
2026-05-04 22:32 45.54165 8.75727 2536 ft 177 kts 345°
2026-05-04 22:32 45.55383 8.75406 1894 ft 178 kts 351°
2026-05-04 22:32 45.56583 8.75127 1478 ft 166 kts 351°
2026-05-04 22:32 45.57657 8.74895 1406 ft 155 kts 351°
2026-05-04 22:33 45.58697 8.74583 1197 ft 152 kts 346°
2026-05-04 22:33 45.59747 8.74263 1070 ft 154 kts 348°
2026-05-04 22:33 45.60803 8.73970 887 ft 156 kts 348°
2026-05-04 22:33 45.61872 8.73676 730 ft 153 kts 348°
2026-05-04 22:34 45.62845 8.73406 730 ft 147 kts 349°
2026-05-04 22:34 45.63689 8.73161 748 ft 89 kts 352°
2026-05-04 22:34 45.63998 8.73086 754 ft 33 kts 349°
2026-05-04 22:34 45.64215 8.73020 759 ft 29 kts 340°
2026-05-04 22:35 45.64319 8.72887 761 ft 14 kts 305°
2026-05-04 22:35 45.64352 8.72818 762 ft 5 kts 304°
2026-05-04 22:35 45.64374 8.72771 763 ft 5 kts 303°
2026-05-04 22:35 45.64394 8.72726 763 ft 5 kts 303°
2026-05-04 22:36 45.64417 8.72691 764 ft 3 kts 313°
2026-05-04 22:36 45.64417 8.72690 764 ft 0 kts 312°
2026-05-04 22:36 45.64423 8.72684 764 ft 3 kts 326°
2026-05-04 22:36 45.64456 8.72665 765 ft 4 kts 328°
2026-05-04 22:37 45.64468 8.72635 765 ft 3 kts 284°
2026-05-04 22:37 45.64470 8.72597 765 ft 5 kts 268°
2026-05-04 22:37 45.64463 8.72519 765 ft 9 kts 258°
2026-05-04 22:37 45.64449 8.72428 766 ft 9 kts 259°
2026-05-04 22:38 45.64437 8.72343 766 ft 8 kts 259°
2026-05-04 22:38 45.64428 8.72267 767 ft 7 kts 259°
2026-05-04 22:38 45.64429 8.72206 768 ft 5 kts 279°
2026-05-04 22:38 45.64443 8.72162 768 ft 4 kts 306°
2026-05-04 22:39 45.64460 8.72128 769 ft 4 kts 307°
2026-05-04 22:39 45.64486 8.72078 770 ft 8 kts 306°
2026-05-04 22:39 45.64510 8.72012 772 ft 5 kts 281°
2026-05-04 22:39 45.64506 8.71958 772 ft 5 kts 261°
2026-05-04 22:40 45.64492 8.71847 774 ft 17 kts 259°
2026-05-04 22:40 45.64442 8.71671 775 ft 19 kts 212°
2026-05-04 22:40 45.64307 8.71685 773 ft 20 kts 169°
2026-05-04 22:40 45.64164 8.71726 769 ft 21 kts 167°
2026-05-04 22:41 45.64010 8.71769 765 ft 22 kts 169°
2026-05-04 22:41 45.63849 8.71812 761 ft 24 kts 168°
2026-05-04 22:41 45.63681 8.71857 756 ft 25 kts 169°
2026-05-04 22:41 45.63504 8.71905 752 ft 26 kts 169°
2026-05-04 22:42 45.63321 8.71955 747 ft 27 kts 169°
2026-05-04 22:42 45.63131 8.72007 743 ft 28 kts 169°
2026-05-04 22:42 45.62937 8.72064 739 ft 28 kts 169°
2026-05-04 22:42 45.62741 8.72119 736 ft 28 kts 169°
2026-05-04 22:43 45.62544 8.72170 732 ft 29 kts 169°
2026-05-04 22:43 45.62345 8.72222 728 ft 29 kts 169°
2026-05-04 22:43 45.62142 8.72282 724 ft 30 kts 168°
2026-05-04 22:43 45.61932 8.72341 719 ft 30 kts 169°
2026-05-04 22:44 45.61726 8.72399 714 ft 25 kts 169°
2026-05-04 22:44 45.61565 8.72443 711 ft 18 kts 169°
2026-05-04 22:44 45.61441 8.72462 708 ft 17 kts 196°
2026-05-04 22:44 45.61395 8.72360 707 ft 12 kts 261°
2026-05-04 22:45 45.61380 8.72249 707 ft 6 kts 257°
2026-05-04 22:45 45.61321 8.72203 706 ft 6 kts 173°
2026-05-04 22:45 45.61271 8.72216 705 ft 8 kts 169°
2026-05-04 22:46 45.61206 8.72232 703 ft 12 kts 178°
2026-05-04 22:46 45.61127 8.72164 702 ft 12 kts 212°
2026-05-04 22:46 45.61079 8.72094 701 ft 4 kts 246°
2026-05-04 22:46 45.61072 8.72050 701 ft 4 kts 263°
2026-05-04 22:47 45.61071 8.72038 701 ft 0 kts 260°